| time (UTC) | temp C | wind direction | speed KPH | gust KPH | rain 1hr cm | rain 24hr cm | rain mn cm | humidity % | barometer mb |
| 20260508052008 | 15 | 269 | 1.6 | 4.8 | 0.00 | 0.00 | 0.00 | 24 | 1019.2 |
| 20260508051603 | 15 | 252 | 1.6 | 4.8 | 0.00 | 0.00 | 0.00 | 24 | 1019.3 |
| 20260508051004 | 15 | 263 | 1.6 | 4.8 | 0.00 | 0.00 | 0.00 | 24 | 1019.2 |
| 20260508050600 | 15 | 288 | 3.2 | 4.8 | 0.00 | 0.00 | 0.00 | 24 | 1019.2 |
| 20260508050050 | 15 | 287 | 3.2 | 6.4 | 0.00 | 0.00 | 0.00 | 23 | 1019.3 |
| 20260508045554 | 15 | 273 | 3.2 | 8.0 | 0.00 | 0.00 | 0.00 | 23 | 1019.3 |
| 20260508045044 | 15 | 290 | 4.8 | 11.3 | 0.00 | 0.00 | 0.00 | 23 | 1019.3 |
| 20260508044536 | 15 | 278 | 4.8 | 11.3 | 0.00 | 0.00 | 0.00 | 23 | 1019.3 |
| 20260508044045 | 15 | 257 | 6.4 | 11.3 | 0.00 | 0.00 | 0.00 | 23 | 1019.3 |
| 20260508043534 | 16 | 267 | 3.2 | 11.3 | 0.00 | 0.00 | 0.00 | 23 | 1019.2 |
| 20260508043044 | 16 | 294 | 4.8 | 12.9 | 0.00 | 0.00 | 0.00 | 23 | 1019.1 |
| 20260508042545 | 16 | 280 | 6.4 | 16.1 | 0.00 | 0.00 | 0.00 | 23 | 1019.2 |
| 20260508042053 | 16 | 304 | 8.0 | 16.1 | 0.00 | 0.00 | 0.00 | 23 | 1019.1 |
| 20260508041543 | 16 | 293 | 8.0 | 14.5 | 0.00 | 0.00 | 0.00 | 23 | 1019.0 |
| 20260508041049 | 16 | 314 | 9.7 | 14.5 | 0.00 | 0.00 | 0.00 | 23 | 1019.0 |
| 20260508040555 | 15 | 294 | 9.7 | 14.5 | 0.00 | 0.00 | 0.00 | 23 | 1019.0 |
| 20260508035502 | 15 | 299 | 6.4 | 17.7 | 0.00 | 0.00 | 0.00 | 23 | 1018.9 |
| 20260508035012 | 15 | 295 | 6.4 | 17.7 | 0.00 | 0.00 | 0.00 | 23 | 1018.8 |
| 20260508034502 | 16 | 288 | 6.4 | 11.3 | 0.00 | 0.00 | 0.00 | 22 | 1018.8 |
| 20260508034010 | 16 | 289 | 4.8 | 9.7 | 0.00 | 0.00 | 0.00 | 22 | 1018.8 |
| 20260508033514 | 16 | 293 | 4.8 | 12.9 | 0.00 | 0.00 | 0.00 | 22 | 1018.7 |
| 20260508033104 | 16 | 278 | 6.4 | 14.5 | 0.00 | 0.00 | 0.00 | 22 | 1018.6 |
| 20260508032506 | 16 | 306 | 6.4 | 19.3 | 0.00 | 0.00 | 0.00 | 22 | 1018.6 |
| 20260508032103 | 16 | 283 | 9.7 | 19.3 | 0.00 | 0.00 | 0.00 | 22 | 1018.5 |
| 20260508031551 | 16 | 287 | 11.3 | 19.3 | 0.00 | 0.00 | 0.00 | 21 | 1018.5 |
| 20260508031100 | 16 | 296 | 11.3 | 17.7 | 0.00 | 0.00 | 0.00 | 21 | 1018.4 |
| 20260508030551 | 17 | 281 | 9.7 | 17.7 | 0.00 | 0.00 | 0.00 | 21 | 1018.3 |
| 20260508030058 | 17 | 303 | 9.7 | 19.3 | 0.00 | 0.00 | 0.00 | 21 | 1018.3 |
| 20260508025603 | 17 | 273 | 11.3 | 19.3 | 0.00 | 0.00 | 0.00 | 21 | 1018.2 |
| 20260508025010 | 17 | 286 | 11.3 | 19.3 | 0.00 | 0.00 | 0.00 | 20 | 1018.2 |
| 20260508024604 | 17 | 285 | 11.3 | 17.7 | 0.00 | 0.00 | 0.00 | 20 | 1018.1 |
| 20260508024006 | 17 | 291 | 8.0 | 16.1 | 0.00 | 0.00 | 0.00 | 20 | 1018.0 |
| 20260508023600 | 17 | 294 | 9.7 | 19.3 | 0.00 | 0.00 | 0.00 | 20 | 1018.0 |
| 20260508023002 | 18 | 271 | 11.3 | 17.7 | 0.00 | 0.00 | 0.00 | 19 | 1017.9 |
| 20260508022559 | 18 | 292 | 8.0 | 17.7 | 0.00 | 0.00 | 0.00 | 19 | 1017.9 |
| 20260508022049 | 18 | 259 | 9.7 | 19.3 | 0.00 | 0.00 | 0.00 | 19 | 1017.8 |
| 20260508021557 | 18 | 268 | 12.9 | 19.3 | 0.00 | 0.00 | 0.00 | 19 | 1017.8 |
| 20260508021103 | 18 | 302 | 8.0 | 17.7 | 0.00 | 0.00 | 0.00 | 19 | 1017.8 |
| 20260508020505 | 18 | 297 | 9.7 | 19.3 | 0.00 | 0.00 | 0.00 | 18 | 1017.8 |
| 20260508020057 | 18 | 293 | 8.0 | 19.3 | 0.00 | 0.00 | 0.00 | 18 | 1017.8 |
| 20260508015604 | 18 | 294 | 9.7 | 24.1 | 0.00 | 0.00 | 0.00 | 18 | 1017.7 |
| 20260508015003 | 19 | 312 | 12.9 | 22.5 | 0.00 | 0.00 | 0.00 | 18 | 1017.7 |
| 20260508014509 | 19 | 180 | 11.3 | 22.5 | 0.00 | 0.00 | 0.00 | 18 | 1017.7 |
| 20260508014103 | 20 | 249 | 11.3 | 22.5 | 0.00 | 0.00 | 0.00 | 17 | 1017.7 |
| 20260508013508 | 20 | 293 | 14.5 | 25.7 | 0.00 | 0.00 | 0.00 | 17 | 1017.7 |
| 20260508013020 | 20 | 303 | 11.3 | 25.7 | 0.00 | 0.00 | 0.00 | 17 | 1017.8 |
| 20260508012517 | 20 | 229 | 14.5 | 27.4 | 0.00 | 0.00 | 0.00 | 17 | 1017.8 |
| 20260508012023 | 20 | 292 | 16.1 | 27.4 | 0.00 | 0.00 | 0.00 | 17 | 1017.8 |
| 20260508011532 | 20 | 277 | 16.1 | 27.4 | 0.00 | 0.00 | 0.00 | 16 | 1017.7 |
| 20260508011035 | 20 | 302 | 11.3 | 25.7 | 0.00 | 0.00 | 0.00 | 16 | 1017.9 |
| 20260508010541 | 20 | 300 | 12.9 | 27.4 | 0.00 | 0.00 | 0.00 | 16 | 1017.7 |
| 20260508010049 | 21 | 223 | 12.9 | 27.4 | 0.00 | 0.00 | 0.00 | 16 | 1017.8 |
| 20260508005540 | 21 | 265 | 9.7 | 27.4 | 0.00 | 0.00 | 0.00 | 16 | 1017.7 |
| 20260508005050 | 21 | 246 | 12.9 | 24.1 | 0.00 | 0.00 | 0.00 | 16 | 1017.9 |
| 20260508004604 | 21 | 270 | 12.9 | 24.1 | 0.00 | 0.00 | 0.00 | 16 | 1017.7 |
| 20260508004103 | 21 | 273 | 12.9 | 22.5 | 0.00 | 0.00 | 0.00 | 16 | 1017.8 |
| 20260508003552 | 21 | 304 | 14.5 | 25.7 | 0.00 | 0.00 | 0.00 | 16 | 1017.7 |
| 20260508003105 | 21 | 311 | 12.9 | 24.1 | 0.00 | 0.00 | 0.00 | 15 | 1017.8 |
| 20260508002551 | 21 | 287 | 12.9 | 27.4 | 0.00 | 0.00 | 0.00 | 15 | 1017.7 |
| 20260508002057 | 21 | 263 | 20.9 | 27.4 | 0.00 | 0.00 | 0.00 | 15 | 1017.8 |
| 20260508001547 | 22 | 304 | 12.9 | 24.1 | 0.00 | 0.00 | 0.00 | 15 | 1017.8 |
| 20260508001038 | 22 | 308 | 17.7 | 24.1 | 0.00 | 0.00 | 0.00 | 14 | 1017.7 |
| 20260508000547 | 22 | 267 | 12.9 | 22.5 | 0.00 | 0.00 | 0.00 | 14 | 1017.7 |
| 20260508000052 | 22 | 282 | 12.9 | 22.5 | 0.00 | 0.00 | 0.00 | 14 | 1017.7 |
| 20260507235558 | 22 | 294 | 12.9 | 22.5 | 0.00 | 0.00 | 0.00 | 14 | 1017.7 |
| 20260507235105 | 22 | 284 | 17.7 | 27.4 | 0.00 | 0.00 | 0.00 | 14 | 1017.7 |
| 20260507234506 | 22 | 276 | 17.7 | 27.4 | 0.00 | 0.00 | 0.00 | 14 | 1017.7 |
| 20260507234101 | 22 | 241 | 6.4 | 25.7 | 0.00 | 0.00 | 0.00 | 14 | 1017.7 |
| 20260507233505 | 22 | 293 | 12.9 | 32.2 | 0.00 | 0.00 | 0.00 | 14 | 1017.7 |
| 20260507233101 | 22 | 257 | 16.1 | 32.2 | 0.00 | 0.00 | 0.00 | 14 | 1017.8 |
| 20260507232552 | 22 | 293 | 9.7 | 16.1 | 0.00 | 0.00 | 0.00 | 14 | 1017.8 |
| 20260507232059 | 22 | 180 | 4.8 | 19.3 | 0.00 | 0.00 | 0.00 | 14 | 1017.8 |
| 20260507231555 | 22 | 296 | 6.4 | 25.7 | 0.00 | 0.00 | 0.00 | 14 | 1017.8 |
| 20260507231100 | 22 | 273 | 14.5 | 25.7 | 0.00 | 0.00 | 0.00 | 14 | 1017.9 |
| 20260507230606 | 22 | 305 | 12.9 | 24.1 | 0.00 | 0.00 | 0.00 | 13 | 1017.9 |
| 20260507230007 | 22 | 264 | 14.5 | 24.1 | 0.00 | 0.00 | 0.00 | 13 | 1018.0 |
| 20260507225603 | 22 | 263 | 4.8 | 17.7 | 0.00 | 0.00 | 0.00 | 12 | 1018.1 |
| 20260507225007 | 22 | 339 | 6.4 | 20.9 | 0.00 | 0.00 | 0.00 | 12 | 1018.1 |
| 20260507224601 | 22 | 304 | 12.9 | 20.9 | 0.00 | 0.00 | 0.00 | 12 | 1018.1 |
| 20260507224002 | 22 | 32 | 4.8 | 19.3 | 0.00 | 0.00 | 0.00 | 12 | 1018.3 |
| 20260507223558 | 22 | 323 | 9.7 | 20.9 | 0.00 | 0.00 | 0.00 | 12 | 1018.3 |
| 20260507223049 | 22 | 235 | 8.0 | 20.9 | 0.00 | 0.00 | 0.00 | 12 | 1018.3 |
| 20260507222557 | 22 | 233 | 6.4 | 20.9 | 0.00 | 0.00 | 0.00 | 12 | 1018.4 |
| 20260507222048 | 22 | 316 | 9.7 | 22.5 | 0.00 | 0.00 | 0.00 | 12 | 1018.4 |
| 20260507221555 | 22 | 244 | 8.0 | 17.7 | 0.00 | 0.00 | 0.00 | 12 | 1018.4 |
| 20260507221100 | 22 | 191 | 8.0 | 16.1 | 0.00 | 0.00 | 0.00 | 12 | 1018.5 |
| 20260507220504 | 21 | 331 | 8.0 | 19.3 | 0.00 | 0.00 | 0.00 | 13 | 1018.7 |
| 20260507220055 | 21 | 270 | 6.4 | 19.3 | 0.00 | 0.00 | 0.00 | 12 | 1018.8 |
| 20260507215602 | 22 | 289 | 8.0 | 17.7 | 0.00 | 0.00 | 0.00 | 12 | 1018.8 |
| 20260507215002 | 21 | 256 | 6.4 | 19.3 | 0.00 | 0.00 | 0.00 | 12 | 1018.9 |
| 20260507214511 | 22 | 247 | 8.0 | 16.1 | 0.00 | 0.00 | 0.00 | 12 | 1019.0 |
| 20260507214001 | 21 | 277 | 0.0 | 17.7 | 0.00 | 0.00 | 0.00 | 12 | 1019.1 |
| 20260507213515 | 21 | 286 | 8.0 | 19.3 | 0.00 | 0.00 | 0.00 | 13 | 1019.2 |
| 20260507213109 | 21 | 306 | 9.7 | 19.3 | 0.00 | 0.00 | 0.00 | 12 | 1019.3 |
| 20260507212508 | 21 | 235 | 3.2 | 16.1 | 0.00 | 0.00 | 0.00 | 13 | 1019.4 |
| 20260507212101 | 21 | 198 | 4.8 | 16.1 | 0.00 | 0.00 | 0.00 | 13 | 1019.5 |
| 20260507211503 | 20 | 214 | 9.7 | 22.5 | 0.00 | 0.00 | 0.00 | 13 | 1019.7 |
| 20260507211011 | 20 | 318 | 6.4 | 19.3 | 0.00 | 0.00 | 0.00 | 13 | 1019.6 |
| 20260507210502 | 20 | 297 | 8.0 | 17.7 | 0.00 | 0.00 | 0.00 | 14 | 1019.7 |
| 20260507210026 | 21 | 308 | 9.7 | 17.7 | 0.00 | 0.00 | 0.00 | 13 | 1019.9 |
| 20260507205604 | 21 | 223 | 4.8 | 20.9 | 0.00 | 0.00 | 0.00 | 14 | 1019.9 |
| 20260507205006 | 20 | 271 | 8.0 | 20.9 | 0.00 | 0.00 | 0.00 | 14 | 1020.1 |
| 20260507204609 | 20 | 329 | 3.2 | 20.9 | 0.00 | 0.00 | 0.00 | 15 | 1020.0 |
| 20260507204054 | 20 | 327 | 9.7 | 20.9 | 0.00 | 0.00 | 0.00 | 16 | 1020.1 |
| 20260507203559 | 20 | 302 | 6.4 | 22.5 | 0.00 | 0.00 | 0.00 | 16 | 1020.1 |
| 20260507203105 | 20 | 210 | 9.7 | 22.5 | 0.00 | 0.00 | 0.00 | 16 | 1020.3 |
| 20260507202507 | 20 | 309 | 4.8 | 19.3 | 0.00 | 0.00 | 0.00 | 16 | 1020.3 |
| 20260507202105 | 19 | 207 | 4.8 | 29.0 | 0.00 | 0.00 | 0.00 | 17 | 1020.5 |
| 20260507201509 | 19 | 296 | 14.5 | 29.0 | 0.00 | 0.00 | 0.00 | 17 | 1020.5 |
| 20260507201102 | 19 | 285 | 11.3 | 19.3 | 0.00 | 0.00 | 0.00 | 17 | 1020.5 |
| 20260507200504 | 19 | 194 | 4.8 | 19.3 | 0.00 | 0.00 | 0.00 | 17 | 1020.7 |
| 20260507200058 | 18 | 298 | 4.8 | 19.3 | 0.00 | 0.00 | 0.00 | 16 | 1020.7 |
| 20260507195549 | 20 | 290 | 9.7 | 17.7 | 0.00 | 0.00 | 0.00 | 16 | 1020.7 |
| 20260507195059 | 20 | 57 | 1.6 | 12.9 | 0.00 | 0.00 | 0.00 | 17 | 1020.7 |
| 20260507194636 | 19 | 217 | 3.2 | 16.1 | 0.00 | 0.00 | 0.00 | 16 | 1020.9 |
| 20260507194006 | 19 | 234 | 3.2 | 16.1 | 0.00 | 0.00 | 0.00 | 16 | 1021.0 |
| 20260507193601 | 19 | 286 | 6.4 | 16.1 | 0.00 | 0.00 | 0.00 | 16 | 1021.1 |
| 20260507193005 | 19 | 281 | 9.7 | 16.1 | 0.00 | 0.00 | 0.00 | 17 | 1021.1 |
| 20260507192559 | 19 | 335 | 1.6 | 11.3 | 0.00 | 0.00 | 0.00 | 17 | 1021.2 |
| 20260507192050 | 18 | 209 | 4.8 | 9.7 | 0.00 | 0.00 | 0.00 | 17 | 1021.4 |
| 20260507191558 | 18 | 234 | 0.0 | 8.0 | 0.00 | 0.00 | 0.00 | 17 | 1021.6 |
| 20260507191048 | 17 | 323 | 3.2 | 11.3 | 0.00 | 0.00 | 0.00 | 18 | 1021.6 |
| 20260507190555 | 17 | 271 | 6.4 | 16.1 | 0.00 | 0.00 | 0.00 | 18 | 1021.7 |
| 20260507190100 | 17 | 225 | 4.8 | 16.1 | 0.00 | 0.00 | 0.00 | 19 | 1021.7 |
| 20260507185502 | 16 | 313 | 9.7 | 16.1 | 0.00 | 0.00 | 0.00 | 19 | 1021.8 |
| 20260507185100 | 17 | 338 | 3.2 | 19.3 | 0.00 | 0.00 | 0.00 | 19 | 1021.8 |
| 20260507184607 | 17 | 248 | 9.7 | 19.3 | 0.00 | 0.00 | 0.00 | 18 | 1022.0 |
| 20260507184054 | 17 | 314 | 3.2 | 12.9 | 0.00 | 0.00 | 0.00 | 18 | 1021.9 |
| 20260507183542 | 16 | 333 | 4.8 | 12.9 | 0.00 | 0.00 | 0.00 | 19 | 1022.0 |
| 20260507183049 | 16 | 265 | 4.8 | 14.5 | 0.00 | 0.00 | 0.00 | 19 | 1022.1 |
| 20260507182555 | 16 | 293 | 6.4 | 14.5 | 0.00 | 0.00 | 0.00 | 19 | 1022.2 |
| 20260507182102 | 17 | 284 | 1.6 | 14.5 | 0.00 | 0.00 | 0.00 | 18 | 1022.1 |
| 20260507181503 | 17 | 304 | 6.4 | 14.5 | 0.00 | 0.00 | 0.00 | 19 | 1022.3 |
| 20260507181011 | 16 | 325 | 6.4 | 12.9 | 0.00 | 0.00 | 0.00 | 19 | 1022.4 |
| 20260507180516 | 17 | 263 | 3.2 | 12.9 | 0.00 | 0.00 | 0.00 | 19 | 1022.4 |
| 20260507180008 | 17 | 221 | 1.6 | 8.0 | 0.00 | 0.00 | 0.00 | 19 | 1022.5 |
| 20260507175605 | 16 | 222 | 3.2 | 12.9 | 0.00 | 0.00 | 0.00 | 19 | 1022.6 |
| 20260507175009 | 17 | 311 | 4.8 | 12.9 | 0.00 | 0.00 | 0.00 | 19 | 1022.6 |
| 20260507174602 | 17 | 205 | 6.4 | 12.9 | 0.00 | 0.00 | 0.00 | 19 | 1022.6 |
| 20260507174003 | 16 | 223 | 1.6 | 12.9 | 0.00 | 0.00 | 0.00 | 21 | 1022.6 |
| 20260507173559 | 16 | 221 | 6.4 | 12.9 | 0.00 | 0.00 | 0.00 | 21 | 1022.7 |
| 20260507173050 | 16 | 178 | 3.2 | 12.9 | 0.00 | 0.00 | 0.00 | 23 | 1022.6 |
| 20260507172557 | 16 | 242 | 1.6 | 11.3 | 0.00 | 0.00 | 0.00 | 23 | 1022.7 |
| 20260507172047 | 16 | 321 | 3.2 | 11.3 | 0.00 | 0.00 | 0.00 | 22 | 1022.9 |
| 20260507171545 | 16 | 304 | 4.8 | 11.3 | 0.00 | 0.00 | 0.00 | 21 | 1022.9 |
| 20260507171047 | 16 | 241 | 1.6 | 8.0 | 0.00 | 0.00 | 0.00 | 22 | 1023.0 |
| 20260507170535 | 15 | 173 | 1.6 | 14.5 | 0.00 | 0.00 | 0.00 | 23 | 1023.0 |
| 20260507170044 | 15 | 166 | 3.2 | 14.5 | 0.00 | 0.00 | 0.00 | 23 | 1023.0 |
| 20260507165550 | 15 | 165 | 4.8 | 11.3 | 0.00 | 0.00 | 0.00 | 25 | 1023.0 |
| 20260507165058 | 15 | 196 | 1.6 | 9.7 | 0.00 | 0.00 | 0.00 | 24 | 1023.0 |
| 20260507164549 | 14 | 140 | 1.6 | 11.3 | 0.00 | 0.00 | 0.00 | 26 | 1023.1 |
| 20260507164057 | 13 | 53 | 3.2 | 9.7 | 0.00 | 0.00 | 0.00 | 24 | 1023.0 |
| 20260507163606 | 13 | 57 | 4.8 | 9.7 | 0.00 | 0.00 | 0.00 | 26 | 1023.0 |
| 20260507163006 | 14 | 99 | 4.8 | 9.7 | 0.00 | 0.00 | 0.00 | 25 | 1023.1 |
| 20260507162602 | 14 | 191 | 3.2 | 8.0 | 0.00 | 0.00 | 0.00 | 26 | 1023.3 |
| 20260507162005 | 13 | 82 | 1.6 | 8.0 | 0.00 | 0.00 | 0.00 | 26 | 1023.3 |
| 20260507161600 | 13 | 168 | 4.8 | 8.0 | 0.00 | 0.00 | 0.00 | 27 | 1023.4 |
| 20260507161105 | 12 | 77 | 3.2 | 8.0 | 0.00 | 0.00 | 0.00 | 28 | 1023.4 |
| 20260507160556 | 12 | 97 | 3.2 | 9.7 | 0.00 | 0.00 | 0.00 | 28 | 1023.5 |
| 20260507160047 | 12 | 161 | 3.2 | 9.7 | 0.00 | 0.00 | 0.00 | 28 | 1023.5 |
| 20260507155554 | 12 | 136 | 3.2 | 11.3 | 0.00 | 0.00 | 0.00 | 29 | 1023.5 |
| 20260507155104 | 12 | 76 | 6.4 | 12.9 | 0.00 | 0.00 | 0.00 | 29 | 1023.5 |
| 20260507154504 | 11 | 103 | 6.4 | 14.5 | 0.00 | 0.00 | 0.00 | 30 | 1023.5 |
| 20260507154100 | 11 | 99 | 4.8 | 14.5 | 0.00 | 0.00 | 0.00 | 30 | 1023.5 |
| 20260507153504 | 11 | 124 | 6.4 | 16.1 | 0.00 | 0.00 | 0.00 | 30 | 1023.6 |
| 20260507153058 | 10 | 102 | 8.0 | 16.1 | 0.00 | 0.00 | 0.00 | 31 | 1023.6 |
| 20260507152552 | 10 | 103 | 11.3 | 16.1 | 0.00 | 0.00 | 0.00 | 30 | 1023.7 |
| 20260507152057 | 10 | 101 | 6.4 | 19.3 | 0.00 | 0.00 | 0.00 | 31 | 1023.7 |
| 20260507151605 | 10 | 137 | 8.0 | 19.3 | 0.00 | 0.00 | 0.00 | 32 | 1023.7 |
| 20260507151005 | 10 | 101 | 6.4 | 14.5 | 0.00 | 0.00 | 0.00 | 32 | 1023.7 |
| 20260507150601 | 9 | 100 | 8.0 | 16.1 | 0.00 | 0.00 | 0.00 | 33 | 1023.7 |
| 20260507150006 | 8 | 136 | 8.0 | 17.7 | 0.00 | 0.00 | 0.00 | 34 | 1023.8 |
| 20260507145601 | 8 | 88 | 11.3 | 17.7 | 0.00 | 0.00 | 0.00 | 34 | 1023.8 |
| 20260507145003 | 8 | 67 | 6.4 | 19.3 | 0.00 | 0.00 | 0.00 | 35 | 1023.9 |
| 20260507144600 | 8 | 97 | 9.7 | 19.3 | 0.00 | 0.00 | 0.00 | 35 | 1023.9 |
| 20260507144049 | 8 | 76 | 11.3 | 19.3 | 0.00 | 0.00 | 0.00 | 35 | 1023.9 |
| 20260507143555 | 7 | 69 | 8.0 | 19.3 | 0.00 | 0.00 | 0.00 | 36 | 1024.0 |
| 20260507143111 | 7 | 108 | 8.0 | 17.7 | 0.00 | 0.00 | 0.00 | 37 | 1023.9 |
| 20260507142504 | 7 | 90 | 9.7 | 17.7 | 0.00 | 0.00 | 0.00 | 36 | 1024.0 |
| 20260507142058 | 7 | 100 | 11.3 | 16.1 | 0.00 | 0.00 | 0.00 | 36 | 1023.9 |
| 20260507141502 | 6 | 86 | 8.0 | 17.7 | 0.00 | 0.00 | 0.00 | 37 | 1023.8 |
| 20260507141100 | 6 | 93 | 9.7 | 17.7 | 0.00 | 0.00 | 0.00 | 36 | 1023.8 |
| 20260507140606 | 6 | 109 | 8.0 | 17.7 | 0.00 | 0.00 | 0.00 | 36 | 1023.7 |
| 20260507140058 | 5 | 91 | 9.7 | 17.7 | 0.00 | 0.00 | 0.00 | 36 | 1023.8 |
| 20260507135604 | 5 | 71 | 9.7 | 16.1 | 0.00 | 0.00 | 0.00 | 36 | 1023.7 |
| 20260507135007 | 5 | 78 | 8.0 | 14.5 | 0.00 | 0.00 | 0.00 | 37 | 1023.7 |
| 20260507134603 | 4 | 96 | 8.0 | 12.9 | 0.00 | 0.00 | 0.00 | 38 | 1023.7 |
| 20260507134006 | 3 | 94 | 6.4 | 12.9 | 0.00 | 0.00 | 0.00 | 40 | 1023.6 |
| 20260507133513 | 3 | 107 | 6.4 | 12.9 | 0.00 | 0.00 | 0.00 | 41 | 1023.6 |
| 20260507133022 | 2 | 100 | 6.4 | 14.5 | 0.00 | 0.00 | 0.00 | 43 | 1023.6 |
| 20260507132524 | 2 | 107 | 8.0 | 14.5 | 0.00 | 0.00 | 0.00 | 43 | 1023.6 |
| 20260507132032 | 2 | 131 | 8.0 | 14.5 | 0.00 | 0.00 | 0.00 | 44 | 1023.6 |
| 20260507131552 | 2 | 98 | 8.0 | 17.7 | 0.00 | 0.00 | 0.00 | 44 | 1023.6 |
| 20260507131048 | 1 | 101 | 8.0 | 17.7 | 0.00 | 0.00 | 0.00 | 45 | 1023.6 |
| 20260507130537 | 1 | 132 | 8.0 | 16.1 | 0.00 | 0.00 | 0.00 | 45 | 1023.5 |
| 20260507130045 | 1 | 113 | 9.7 | 16.1 | 0.00 | 0.00 | 0.00 | 46 | 1023.5 |
| 20260507125552 | 1 | 92 | 8.0 | 12.9 | 0.00 | 0.00 | 0.00 | 47 | 1023.5 |
| 20260507125059 | 1 | 107 | 8.0 | 12.9 | 0.00 | 0.00 | 0.00 | 49 | 1023.4 |
| 20260507124550 | 0 | 72 | 6.4 | 11.3 | 0.00 | 0.00 | 0.00 | 52 | 1023.4 |
| 20260507124059 | 0 | 103 | 6.4 | 11.3 | 0.00 | 0.00 | 0.00 | 53 | 1023.4 |
| 20260507123604 | 0 | 112 | 4.8 | 9.7 | 0.00 | 0.00 | 0.00 | 51 | 1023.5 |
| 20260507123006 | 0 | 105 | 4.8 | 9.7 | 0.00 | 0.00 | 0.00 | 50 | 1023.5 |
| 20260507122602 | 0 | 113 | 3.2 | 6.4 | 0.00 | 0.00 | 0.00 | 51 | 1023.5 |
| 20260507122006 | 0 | 84 | 1.6 | 4.8 | 0.00 | 0.00 | 0.00 | 53 | 1023.4 |
| 20260507121602 | 0 | 95 | 1.6 | 4.8 | 0.00 | 0.00 | 0.00 | 52 | 1023.4 |
| 20260507121002 | 0 | 89 | 1.6 | 4.8 | 0.00 | 0.00 | 0.00 | 51 | 1023.3 |
| 20260507120557 | 0 | 100 | 3.2 | 3.2 | 0.00 | 0.00 | 0.00 | 51 | 1023.3 |
| 20260507120048 | 0 | 99 | 3.2 | 3.2 | 0.00 | 0.00 | 0.00 | 50 | 1023.4 |
| 20260507115557 | 0 | 100 | 3.2 | 4.8 | 0.00 | 0.00 | 0.00 | 50 | 1023.4 |
| 20260507115101 | 0 | 100 | 3.2 | 4.8 | 0.00 | 0.00 | 0.00 | 50 | 1023.3 |
| 20260507114505 | 0 | 100 | 3.2 | 4.8 | 0.00 | 0.00 | 0.00 | 49 | 1023.3 |
| 20260507114100 | 0 | 98 | 1.6 | 4.8 | 0.00 | 0.00 | 0.00 | 49 | 1023.3 |
| 20260507113504 | 0 | 98 | 3.2 | 6.4 | 0.00 | 0.00 | 0.00 | 49 | 1023.3 |
| 20260507113102 | 0 | 101 | 4.8 | 6.4 | 0.00 | 0.00 | 0.00 | 48 | 1023.2 |
| 20260507112553 | 0 | 97 | 3.2 | 6.4 | 0.00 | 0.00 | 0.00 | 48 | 1023.2 |
| 20260507112100 | 0 | 101 | 4.8 | 4.8 | 0.00 | 0.00 | 0.00 | 47 | 1023.2 |
| 20260507111549 | 0 | 95 | 3.2 | 4.8 | 0.00 | 0.00 | 0.00 | 46 | 1023.1 |
| 20260507111056 | 0 | 104 | 3.2 | 6.4 | 0.00 | 0.00 | 0.00 | 46 | 1023.1 |
| 20260507110603 | 0 | 90 | 3.2 | 6.4 | 0.00 | 0.00 | 0.00 | 46 | 1023.3 |
| 20260507110008 | 0 | 95 | 3.2 | 4.8 | 0.00 | 0.00 | 0.00 | 45 | 1023.2 |
| 20260507105558 | 0 | 92 | 3.2 | 4.8 | 0.00 | 0.00 | 0.00 | 45 | 1023.1 |
| 20260507105104 | 1 | 110 | 3.2 | 6.4 | 0.00 | 0.00 | 0.00 | 44 | 1023.2 |
| 20260507104555 | 1 | 98 | 3.2 | 6.4 | 0.00 | 0.00 | 0.00 | 44 | 1023.1 |
| 20260507104045 | 1 | 111 | 3.2 | 6.4 | 0.00 | 0.00 | 0.00 | 43 | 1023.1 |
| 20260507103554 | 1 | 102 | 3.2 | 6.4 | 0.00 | 0.00 | 0.00 | 43 | 1023.0 |
| 20260507103100 | 2 | 107 | 3.2 | 4.8 | 0.00 | 0.00 | 0.00 | 42 | 1023.0 |
| 20260507102503 | 2 | 105 | 3.2 | 4.8 | 0.00 | 0.00 | 0.00 | 41 | 1023.0 |
| 20260507102102 | 2 | 90 | 3.2 | 4.8 | 0.00 | 0.00 | 0.00 | 41 | 1023.1 |
| 20260507101502 | 2 | 86 | 3.2 | 8.0 | 0.00 | 0.00 | 0.00 | 41 | 1023.1 |
| 20260507101057 | 2 | 84 | 3.2 | 8.0 | 0.00 | 0.00 | 0.00 | 40 | 1023.0 |
| 20260507100604 | 2 | 77 | 4.8 | 8.0 | 0.00 | 0.00 | 0.00 | 39 | 1022.9 |
| 20260507100049 | 2 | 95 | 4.8 | 8.0 | 0.00 | 0.00 | 0.00 | 39 | 1022.9 |
| 20260507095557 | 2 | 57 | 3.2 | 9.7 | 0.00 | 0.00 | 0.00 | 40 | 1022.9 |
| 20260507095104 | 2 | 55 | 6.4 | 9.7 | 0.00 | 0.00 | 0.00 | 40 | 1022.8 |
| 20260507094503 | 2 | 36 | 1.6 | 6.4 | 0.00 | 0.00 | 0.00 | 41 | 1022.8 |
| 20260507094101 | 2 | 38 | 3.2 | 6.4 | 0.00 | 0.00 | 0.00 | 41 | 1022.8 |
| 20260507093501 | 2 | 55 | 0.0 | 3.2 | 0.00 | 0.00 | 0.00 | 40 | 1022.8 |
| 20260507093101 | 2 | 55 | 1.6 | 4.8 | 0.00 | 0.00 | 0.00 | 41 | 1022.9 |
| 20260507092550 | 2 | 55 | 3.2 | 4.8 | 0.00 | 0.00 | 0.00 | 41 | 1022.8 |
| 20260507092056 | 2 | 36 | 1.6 | 4.8 | 0.00 | 0.00 | 0.00 | 41 | 1022.8 |
| 20260507091604 | 2 | 36 | 1.6 | 6.4 | 0.00 | 0.00 | 0.00 | 41 | 1022.8 |
| 20260507091005 | 2 | 32 | 1.6 | 8.0 | 0.00 | 0.00 | 0.00 | 41 | 1022.7 |
| 20260507090514 | 2 | 28 | 3.2 | 8.0 | 0.00 | 0.00 | 0.00 | 41 | 1022.6 |
| 20260507090021 | 2 | 26 | 3.2 | 6.4 | 0.00 | 0.00 | 0.00 | 41 | 1022.8 |
| 20260507085524 | 2 | 24 | 1.6 | 6.4 | 0.00 | 0.00 | 0.00 | 40 | 1022.7 |
| 20260507085032 | 2 | 18 | 4.8 | 6.4 | 0.00 | 0.00 | 0.00 | 40 | 1022.5 |
| 20260507084538 | 2 | 347 | 1.6 | 4.8 | 0.00 | 0.00 | 0.00 | 40 | 1022.6 |
| 20260507084045 | 2 | 348 | 1.6 | 4.8 | 0.00 | 0.00 | 0.00 | 39 | 1022.6 |
| 20260507083537 | 3 | 306 | 1.6 | 3.2 | 0.00 | 0.00 | 0.00 | 39 | 1022.6 |
| 20260507083045 | 3 | 306 | 1.6 | 3.2 | 0.00 | 0.00 | 0.00 | 38 | 1022.6 |
| 20260507082550 | 3 | 306 | 1.6 | 3.2 | 0.00 | 0.00 | 0.00 | 38 | 1022.6 |
| 20260507082102 | 3 | 306 | 0.0 | 3.2 | 0.00 | 0.00 | 0.00 | 38 | 1022.5 |
| 20260507081549 | 3 | 306 | 0.0 | 3.2 | 0.00 | 0.00 | 0.00 | 38 | 1022.6 |
| 20260507081058 | 3 | 306 | 0.0 | 3.2 | 0.00 | 0.00 | 0.00 | 38 | 1022.5 |
| 20260507080606 | 3 | 286 | 0.0 | 4.8 | 0.00 | 0.00 | 0.00 | 38 | 1022.5 |
| 20260507080005 | 3 | 286 | 3.2 | 4.8 | 0.00 | 0.00 | 0.00 | 38 | 1022.4 |
| 20260507075601 | 3 | 336 | 1.6 | 3.2 | 0.00 | 0.00 | 0.00 | 38 | 1022.5 |
| 20260507075005 | 3 | 336 | 0.0 | 3.2 | 0.00 | 0.00 | 0.00 | 37 | 1022.5 |
| 20260507074601 | 3 | 355 | 0.0 | 4.8 | 0.00 | 0.00 | 0.00 | 37 | 1022.4 |
| 20260507074051 | 3 | 355 | 3.2 | 4.8 | 0.00 | 0.00 | 0.00 | 37 | 1022.5 |
| 20260507073557 | 4 | 338 | 1.6 | 3.2 | 0.00 | 0.00 | 0.00 | 36 | 1022.5 |
| 20260507073048 | 4 | 328 | 0.0 | 3.2 | 0.00 | 0.00 | 0.00 | 36 | 1022.6 |
| 20260507072539 | 4 | 311 | 1.6 | 4.8 | 0.00 | 0.00 | 0.00 | 36 | 1022.7 |
| 20260507072049 | 4 | 12 | 1.6 | 6.4 | 0.00 | 0.00 | 0.00 | 36 | 1022.6 |
| 20260507071608 | 4 | 9 | 4.8 | 6.4 | 0.00 | 0.00 | 0.00 | 36 | 1022.5 |
| 20260507071102 | 5 | 15 | 3.2 | 12.9 | 0.00 | 0.00 | 0.00 | 36 | 1022.5 |
| 20260507070551 | 5 | 10 | 6.4 | 14.5 | 0.00 | 0.00 | 0.00 | 36 | 1022.4 |
| 20260507070059 | 5 | 24 | 8.0 | 14.5 | 0.00 | 0.00 | 0.00 | 36 | 1022.4 |
| 20260507065608 | 5 | 19 | 6.4 | 12.9 | 0.00 | 0.00 | 0.00 | 35 | 1022.3 |
| 20260507065008 | 5 | 355 | 6.4 | 12.9 | 0.00 | 0.00 | 0.00 | 36 | 1022.4 |
| 20260507064600 | 5 | 16 | 4.8 | 9.7 | 0.00 | 0.00 | 0.00 | 35 | 1022.5 |
| 20260507064005 | 5 | 36 | 3.2 | 9.7 | 0.00 | 0.00 | 0.00 | 35 | 1022.5 |
| 20260507063558 | 5 | 49 | 4.8 | 9.7 | 0.00 | 0.00 | 0.00 | 35 | 1022.5 |
| 20260507063048 | 5 | 51 | 4.8 | 9.7 | 0.00 | 0.00 | 0.00 | 35 | 1022.4 |
| 20260507062555 | 5 | 33 | 4.8 | 8.0 | 0.00 | 0.00 | 0.00 | 35 | 1022.4 |
| 20260507062048 | 5 | 47 | 4.8 | 8.0 | 0.00 | 0.00 | 0.00 | 35 | 1022.4 |
| 20260507061559 | 5 | 38 | 1.6 | 6.4 | 0.00 | 0.00 | 0.00 | 34 | 1022.4 |
| 20260507061100 | 5 | 18 | 3.2 | 6.4 | 0.00 | 0.00 | 0.00 | 34 | 1022.3 |
| 20260507060502 | 5 | 5 | 4.8 | 6.4 | 0.00 | 0.00 | 0.00 | 34 | 1022.2 |
| 20260507060007 | 6 | 344 | 3.2 | 4.8 | 0.00 | 0.00 | 0.00 | 33 | 1022.2 |
| 20260507055603 | 6 | 306 | 1.6 | 4.8 | 0.00 | 0.00 | 0.00 | 33 | 1022.3 |
| 20260507055005 | 6 | 319 | 3.2 | 8.0 | 0.00 | 0.00 | 0.00 | 33 | 1022.1 |
| 20260507054602 | 6 | 317 | 4.8 | 8.0 | 0.00 | 0.00 | 0.00 | 33 | 1022.1 |
| 20260507054103 | 6 | 323 | 4.8 | 8.0 | 0.00 | 0.00 | 0.00 | 33 | 1022.0 |
| 20260507053505 | 6 | 322 | 3.2 | 6.4 | 0.00 | 0.00 | 0.00 | 32 | 1022.0 |
| 20260507053129 | 7 | 302 | 3.2 | 11.3 | 0.00 | 0.00 | 0.00 | 32 | 1022.0 |